Location: *
(35.2348°S, 91.3916°E)
Time: 22:16:26
(UTC+00:00)

Cosmos 1610 Rocket - Pass Details

Date: 23 October 2019
Orbit: 953 x 1002 km, 82.9° (Epoch: 13 November)

Event Time Altitude Azimuth Distance (km) Brightness Sun altitude
Rises 21:25:52 0° 190° (S) 3,666 7.8 -18.8°
Reaches altitude 10° 21:28:23 10° 192° (SSW) 2,716 7.0 -18.4°
Maximum altitude 21:34:33 69° 273° (W) 1,038 4.4 -17.3°
Drops below altitude 10° 21:40:42 10° 355° (N) 2,710 6.5 -16.2°
Sets 21:43:13 0° 357° (N) 3,656 7.2 -15.7°
